Location: Sungai Dangang
(2.7500°N, 113.8333°E)
Time: 21:46:47
(UTC+00:00)

ALOS - Pass Details

Date: 16 May 2021
Orbit: 682 x 685 km, 97.9° (Epoch: 15 June)

Event Time Altitude Azimuth Distance (km) Brightness Sun altitude
Rises 20:21:09 0° 7° (N) 3,028 6.0 -27.1°
Reaches altitude 10° 20:23:23 10° 4° (N) 2,115 5.1 -26.6°
Enters shadow 20:27:01 52° 340° (NNW) 843 2.6 -25.7°
